User: anonymous   Login
Location: Unspecified
(0.0000°N, 0.0000°E)
Time: 08:13:15
(UTC+02:00)
Language:

JASON 3 - Orbit

View from above orbital plane
View from above orbital plane
View from above satellite
View from above satellite

Ground track
Ground track

The orbit data is extracted from the following two-line orbital elements,

1 41240U 16002A   23147.16645655 -.00000050  00000-0  45742-4 0  9997
2 41240  66.0416 295.1749 0007662 271.4121  88.6016 12.80928299344079
Epoch (UTC): 27 May 2023 03:59:41
Eccentricity: 0.0007662
inclination: 66.0416°
perigee height: 1332 km
apogee height: 1343 km
right ascension of ascending node: 295.1749°
argument of perigee: 271.4121°
revolutions per day: 12.80928299
mean anomaly at epoch: 88.6016°
orbit number at epoch: 34407

The dashed part of the orbit path shows where the satellite is in the earth's shadow,  

DLR